Regional Weather Roundup
Issued by NWS

Home | Current Version | Previous Version | Text Only | Print | Product List | Glossary Off
Versions: 1 2 3 4 5 6 7 8 9 10 11 12 13 14 15 16 17 18 19 20 21 22 23 24 25 26 27 28 29 30 31 32 33 34 35 36 37 38 39 40 41 42 43 44 45 46 47 48 49 50

000
ASUS45 KABQ 211701
RWRNM
WEATHER ROUNDUP FOR NEW MEXICO
NATIONAL WEATHER SERVICE ALBUQUERQUE NM
1100 AM MDT TUE OCT 21 2014

NOTE: "FAIR" MEANS FEW OR NO CLOUDS BELOW 12,000 FEET AGL WITH NO
       SIGNIFICANT WEATHER OR OBSTRUCTIONS TO VISION.

      THIS PRODUCT IS RELEASED AS TWO VERSIONS.  ONE VERSION NEAR
      THE TOP OF THE HOUR CONTAINING PRELIMINARY DATA FROM ALBUQUERQUE
      AND OTHER STATIONS.  A FINAL VERSION WITH ADDITIONAL DATA IS
      ISSUED ABOUT 10 MINUTES AFTER THE HOUR.

NMZ501-503-504-510>518-211800-
NORTHWEST PLATEAU/NORTHCENTRAL MOUNTAINS

CITY           SKY/WX    TMP DP  RH WIND       PRES   REMARKS
FARMINGTON     PTSUNNY   60  45  57 E8        30.15S
LOS ALAMOS     CLOUDY    49  49 100 CALM      30.25S
SANTA FE       CLOUDY    56  47  71 VRB6      30.21S
TAOS           CLOUDY    50  39  66 NW6       30.25S
ANGEL FIRE     CLOUDY    42  39  89 CALM      30.29F

$$
NMZ402-403-502-505>509-211800-
WESTCENTRAL MOUNTAINS/SOUTHWEST MOUNTAINS

CITY           SKY/WX    TMP DP  RH WIND       PRES   REMARKS
GALLUP         SUNNY     58  46  64 CALM      30.19F
SILVER CITY    PTSUNNY   59  50  72 SE8       30.18S

$$
NMZ407-409-411-412-211800-
SOUTHERN DESERTS

CITY           SKY/WX    TMP DP  RH WIND       PRES   REMARKS
LORDSBURG      FAIR      64  52  63 MISG      30.11S
DEMING         SUNNY     64  55  72 E12       30.12F
LAS CRUCES     CLOUDY    64  55  74 SE8       30.13F
HOLLOMAN AFB   MOSUNNY   61  61 100 VRB1      30.12F
T OR C         CLOUDY    58  51  78 N7        30.15S

$$
NMZ519>523-211800-
CENTRAL VALLEYS/CENTRAL HIGHLANDS

CITY           SKY/WX    TMP DP  RH WIND       PRES   REMARKS
ALBUQUERQUE    MOSUNNY   60  48  64 SW6       30.18R
DOUBLE EAGLE   PTSUNNY   57  46  67 CALM      30.19S
MORIARTY ARPT  PTSUNNY   60  46  61 S9        30.22F
CLINES CORNERS PTSUNNY   58  44  60 S10       30.22F
BELEN          FAIR      61  47  60 SE5       30.18S
SOCORRO        PTSUNNY   59  50  71 CALM      30.16F

$$
NMZ524>526-539-540-211800-
SOUTHCENTRAL MOUNTAINS

CITY           SKY/WX    TMP DP  RH WIND       PRES   REMARKS
RUIDOSO        CLOUDY    50  48  93 SE3       30.25F

$$
NMZ527>531-211800-
NORTHEAST HIGHLANDS/NORTHEAST PLAINS

CITY           SKY/WX    TMP DP  RH WIND       PRES   REMARKS
LAS VEGAS      CLOUDY    52  47  83 S12       30.24S
RATON          MOSUNNY   59  43  55 S13       30.18F
CLAYTON        SUNNY     69  45  41 S18G25    30.14F

$$
NMZ532>537-211800-
EASTCENTRAL PLAINS

CITY           SKY/WX    TMP DP  RH WIND       PRES   REMARKS
TUCUMCARI      MOSUNNY   70  51  51 VRB3      30.13F
CANNON AFB     SUNNY     67  53  59 S9        30.16F
CLOVIS AIRPORT NOT AVBL

$$
NMZ028-029-538-211800-
SOUTHEAST PLAINS

CITY           SKY/WX    TMP DP  RH WIND       PRES   REMARKS
ROSWELL        CLOUDY    62  57  83 CALM      30.13F
CARLSBAD       CLOUDY    65  60  84 S7        30.11S
HOBBS          CLOUDY    64  57  77 SE12      30.15F


$$



USA.gov is the U.S. government's official web portal to all federal, state and local government web resources and services.